Home > Weather > Corpus Christi > Past weeks

Flag for USA Weather for the Past 2 Weeks in Corpus Christi, Texas, USA

Now
87 °F

Partly sunny.


Feels Like: 94 °F
Forecast: 76 / 87 °F
Wind: 5 mph from Southeast

Location: Corpus Christi International Airport

Current Time: May 1, 2016 at 1:13:24 PM

Latest Report: May 1, 2016 at 11:51 AM


Visibility: 8 mi

Pressure: 29.80 "Hg

Humidity: 61%

Dew Point: 72 °F

Location of Corpus ChristiLocation

Historic Weather in Corpus Christi — Graph

°F

Corpus Christi Temperature Yesterday

Maximum temperature yesterday: 93 °F (at 3:51 PM)
Minimum temperature yesterday: 78 °F (at 5:00 AM)
Average temperature yesterday: 83 °F

High & Low Weather Summary for the Past Weeks

 TemperatureHumidityPressure
High93 °F (Apr 30, 3:51 PM)93% (Apr 18, 6:02 PM)30.09 "Hg (Apr 18, 6:02 PM)
Low66 °F (Apr 23, 5:51 AM)37% (Apr 22, 3:51 PM)29.55 "Hg (Apr 27, 3:51 AM)
Average77 °F80%29.83 "Hg
* Reported Apr 16 11:51 AM — May 1 11:51 AM, Corpus Christi, Weather by CustomWeather, © 2016

Note: Actual official high and low records may vary slightly from our data, if they occured in-between our weather recording intervals... More about our weather records

Advertising

Corpus Christi Weather History for the Previous 24 Hours

Scroll right to see more
 ConditionsComfort  
Time TempWeatherWind HumidityBarometerVisibility
11:51 AM
Sun, May 1
87 °FPartly sunny.5 mph61%29.80 "Hg8 mi
10:51 AM86 °FPartly sunny.7 mph65%29.79 "Hg8 mi
9:51 AM83 °FBroken clouds.6 mph77%29.79 "Hg7 mi
8:51 AM81 °FBroken clouds.7 mph82%29.78 "Hg7 mi
7:51 AM80 °FBroken clouds.5 mph85%29.77 "Hg5 mi
6:51 AM79 °FPartly cloudy.5 mph88%29.75 "Hg8 mi
6:03 AM79 °FPartly cloudy.8 mph84%29.73 "Hg9 mi
5:51 AM79 °FPassing clouds.9 mph84%29.71 "Hg9 mi
4:51 AM79 °FOvercast.10 mph84%29.72 "Hg10 mi
4:01 AM78 °FOvercast.6 mph87%29.73 "Hg9 mi
3:51 AM78 °FMostly cloudy.3 mph87%29.72 "Hg8 mi
2:51 AM78 °FPassing clouds.5 mph87%29.72 "Hg9 mi
1:51 AM78 °FPassing clouds.9 mph84%29.74 "Hg9 mi
12:51 AM78 °FPassing clouds.12 mph87%29.74 "Hg9 mi
11:51 PM
Sat, Apr 30
79 °FPassing clouds.10 mph84%29.75 "Hg9 mi
10:51 PM80 °FPassing clouds.10 mph81%29.74 "Hg8 mi
9:51 PM80 °FPassing clouds.9 mph81%29.72 "Hg8 mi
8:51 PM80 °FPartly sunny.8 mph85%29.69 "Hg8 mi
7:51 PM82 °FPartly sunny.10 mph77%29.66 "Hg8 mi
6:51 PM85 °FPartly sunny.14 mph65%29.64 "Hg10 mi
5:51 PM89 °FPartly sunny.14 mph53%29.62 "Hg10 mi
4:51 PM92 °FPartly sunny.12 mph47%29.62 "Hg10 mi
3:51 PM93 °FPartly sunny.9 mph49%29.63 "Hg10 mi
2:51 PM92 °FBroken clouds.7 mph49%29.64 "Hg10 mi
1:51 PM91 °FBroken clouds.9 mph50%29.65 "Hg10 mi
Weather by CustomWeather, © 2016

See weather overviewHow to use our weather pages